[[{"header":{"parameterUnit":"m.s-1","parameterCategory":2,"la1":30.2991,"la2":30.254,"lo1":-89.0895,"lo2":-89.0444,"dy":0.0017,"dx":0.0017,"nx":28,"ny":28,"refTime":"2024-04-22T09:00:00:Z","depth":"0","parameterNumber":2,"parameterNumberName":"U-component_of_CURRENTS"},"data":[0,0,0,0,0,0,0,0,0,0,0,0,0,0,0,0,0,0,0,0,0,0,0,0,0,0,0,0,0,0,0,0,0,0,0,0,0,0,0,0,0,0,0,0,0,0,0,0,0,0,0,0,0,0,0,0,0,0,0.2877,0.2878,0,0.296,0.296,0.2961,0.298,0.298,0.298,0.2979,0.2972,0.2972,0.2972,0,0,0,0,0,0,0,0,0,0,0,0,0,0.2715,0.2717,0.2876,0.2878,0.288,0.296,0.296,0.2961,0.298,0.298,0.298,0.2979,0.2972,0.2972,0.2972,0,0,0,0,0,0,0,0,0,0,0,0,0,0.2785,0.2718,0.2876,0.2902,0.2906,0.296,0.296,0.2961,0.298,0.298,0.2979,0.2979,0.2972,0.2972,0.2972,0.2974,0,0,0.2972,0.2972,0,0,0,0,0,0,0,0,0.2781,0.2791,0.2897,0.2901,0.2905,0.2964,0.2901,0.2963,0.298,0.2946,0.2979,0.2979,0.2965,0.2965,0.2975,0.2974,0.2974,0.2972,0.2972,0.2972,0.2972,0,0,0,0,0,0,0,0.2776,0.2787,0.2904,0.2899,0.2904,0.2904,0.2913,0.2913,0.2949,0.2949,0.2952,0.297,0.2965,0.2975,0.2975,0.2974,0.2972,0.2972,0.2972,0.2971,0.3011,0.3012,0,0,0,0,0,0,0.2779,0.2783,0.2902,0.2907,0.2847,0.2908,0.2918,0.2941,0.2952,0.2955,0.297,0.297,0.2975,0.2975,0.2974,0.3018,0.2972,0.2971,0.2971,0.301,0.3011,0.3012,0,0,0,0,0,0,0.2775,0.2788,0.2898,0.285,0.2865,0.2911,0.2936,0.2943,0.2957,0.2969,0.297,0.2979,0.2975,0.2975,0.2991,0.3016,0.2971,0.2971,0.3008,0.301,0.3012,0.308,0,0,0,0,0,0,0.277,0.2787,0.2799,0.2851,0.2868,0.2936,0.2937,0.2945,0.297,0.2972,0.2977,0.2976,0.2975,0.2992,0.2991,0.3015,0.2971,0.3007,0.3009,0.3011,0.3076,0.3083,0.309,0,0,0,0,0,0.2764,0.279,0.2799,0.2813,0.2885,0.2938,0.2946,0.2974,0.2971,0.2983,0.2993,0.2976,0.3004,0.2993,0.2992,0.3017,0.3006,0.3009,0.3011,0.3073,0.3082,0.309,0,0,0,0,0,0,0.2724,0.2796,0.2807,0.2852,0.2892,0.2943,0.2963,0.2975,0.2993,0.2995,0.2991,0.2992,0.3019,0.3004,0.2991,0.3034,0.3002,0.3005,0.3049,0.3058,0.3065,0.3081,0.2971,0,0,0,0,0,0.2722,0.2762,0.282,0.2854,0.2877,0.2915,0.2938,0.2961,0.2989,0.2997,0.3001,0.3008,0.3028,0.3032,0.3043,0.3059,0.308,0.3074,0.3081,0.3087,0.31,0.3159,0.3173,0.3021,0.3021,0.3021,0,0,0.2719,0.2762,0.2785,0.2849,0.2881,0.2925,0.2928,0.2973,0.3009,0.2992,0.3027,0.3033,0.3039,0.3072,0.3081,0.3062,0.3144,0.3091,0.3096,0.3105,0.3163,0.3178,0.3192,0.3022,0.3022,0.3022,0,0,0.2734,0.2768,0.2805,0.2843,0.2903,0.2934,0.2947,0.2998,0.3019,0.3055,0.3061,0.3084,0.3095,0.312,0.313,0.3178,0.3183,0.3173,0.3218,0.3275,0.3289,0.3301,0.336,0.3377,0.3172,0.3172,0.3172,0,0.2722,0.2782,0.2821,0.2866,0.2903,0.2938,0.2983,0.3016,0.3063,0.3087,0.3073,0.3127,0.3126,0.3185,0.3206,0.3195,0.3229,0.3187,0.3287,0.3299,0.331,0.3368,0.3385,0.3176,0.3175,0.3175,0.3175,0,0.2778,0.2814,0.284,0.2911,0.2951,0.2998,0.3054,0.3088,0.3109,0.314,0.3195,0.3207,0.3236,0.3243,0.3241,0.332,0.332,0.3294,0.3269,0.333,0.3386,0.3404,0.3181,0.318,0.3179,0.3178,0,0,0.2772,0.2861,0.2866,0.2899,0.2981,0.302,0.3086,0.3156,0.3203,0.3234,0.3294,0.3331,0.333,0.3343,0.3345,0.3395,0.3504,0.3382,0.3383,0.3448,0.3646,0.3554,0.3563,0.35,0.3503,0.3505,0.3659,0,0.2798,0.2874,0.292,0.2987,0.3031,0.3087,0.3146,0.3211,0.3259,0.3321,0.3351,0.3405,0.3371,0.3397,0.344,0.3494,0.355,0.3465,0.3571,0.3575,0.3491,0.358,0.3359,0.3469,0.3676,0.3679,0.3681,0,0.2837,0.2882,0.2952,0.3029,0.3055,0.3102,0.3204,0.3264,0.3359,0.3396,0.3449,0.3477,0.356,0.3516,0.3641,0.3591,0.3626,0.3661,0.3667,0.3568,0.3514,0.3438,0.3492,0.3373,0.3707,0.3705,0.3703,0,0.282,0.29,0.2954,0.2985,0.3084,0.3126,0.3182,0.3281,0.3346,0.3452,0.3508,0.3587,0.3633,0.3705,0.3754,0.3719,0.3891,0.3844,0.3798,0.3792,0.3617,0.359,0.3569,0.3939,0.3939,0.3938,0.3938,0,0.2842,0.2881,0.2946,0.2982,0.3051,0.3118,0.3209,0.3278,0.3385,0.347,0.3538,0.3609,0.3684,0.3774,0.3814,0.3863,0.3938,0.3835,0.3833,0.3633,0.3607,0.3502,0.3471,0.3944,0.3943,0.3942,0.3941,0,0.2843,0.2878,0.2944,0.3028,0.305,0.3106,0.322,0.3289,0.3389,0.3508,0.3551,0.3657,0.3771,0.3849,0.3969,0.3924,0.3873,0.399,0.3751,0.3716,0.3514,0.3495,0.3406,0.3317,0.397,0.3968,0.3967,0,0.2869,0.2901,0.2972,0.3001,0.3043,0.312,0.3178,0.3282,0.3356,0.353,0.3581,0.3718,0.3795,0.3927,0.3899,0.3967,0.3851,0.3765,0.3638,0.3497,0.3477,0.3364,0.3288,0.3452,0.3446,0.3442,0.3439,0,0.2932,0.2946,0.2997,0.3039,0.3087,0.3141,0.3223,0.3272,0.3405,0.3489,0.3584,0.3663,0.3764,0.369,0.3751,0.3752,0.3542,0.3677,0.3592,0.3128,0.2944,0.2856,0.3374,0.3401,0.3404,0.3407,0.3409,0.3411,0.2987,0.3015,0.3059,0.3091,0.3132,0.3152,0.3158,0.3239,0.3313,0.3385,0.3498,0.3516,0.3471,0.3507,0.349,0.3251,0.3326,0.3091,0.3106,0.3026,0.2839,0.3277,0.325,0.3253,0.3255,0.3258,0.3259,0,0.3049,0.3062,0.3105,0.3123,0.3126,0.3142,0.3178,0.3141,0.316,0.3235,0.3272,0.3162,0.3072,0.3018,0.2824,0.2684,0.2566,0.2591,0.2374,0.2352,0.2786,0.2657,0.2422,0.2422,0.2422,0.2423,0.2423,0.2423,0.3091,0.3114,0.3103,0.3097,0.309,0.3019,0.2991,0.2942,0.294,0.2832,0.2737,0.2743,0.2706,0.2532,0.2312,0.2251,0.2094,0.1957,0.2047,0.2329,0.2376,0.242,0.2289,0.1981,0.198,0.1445,0.1441,0.1438]},{"header":{"parameterUnit":"m.s-1","parameterCategory":2,"la1":30.2991,"la2":30.254,"lo1":-89.0895,"lo2":-89.0444,"dy":0.0017,"dx":0.0017,"nx":28,"ny":28,"refTime":"2024-04-22T09:00:00:Z","depth":"0","parameterNumber":3,"parameterNumberName":"V-component_of_CURRENTS"},"data":[0,0,0,0,0,0,0,0,0,0,0,0,0,0,0,0,0,0,0,0,0,0,0,0,0,0,0,0,0,0,0,0,0,0,0,0,0,0,0,0,0,0,0,0,0,0,0,0,0,0,0,0,0,0,0,0,0,0,-0.0132,-0.0133,0,-0.016,-0.016,-0.016,-0.0202,-0.0203,-0.0204,-0.0204,-0.0284,-0.0285,-0.0287,0,0,0,0,0,0,0,0,0,0,0,0,0,-0.0113,-0.0113,-0.0132,-0.0133,-0.0133,-0.016,-0.016,-0.0161,-0.0202,-0.0203,-0.0204,-0.0205,-0.0283,-0.0285,-0.0287,0,0,0,0,0,0,0,0,0,0,0,0,0,-0.013,-0.0114,-0.0132,-0.0156,-0.0158,-0.016,-0.016,-0.0161,-0.0202,-0.0203,-0.0204,-0.0205,-0.0283,-0.0285,-0.0287,-0.0281,0,0,-0.0294,-0.0295,0,0,0,0,0,0,0,0,-0.0129,-0.0131,-0.0152,-0.0154,-0.0157,-0.0178,-0.0182,-0.0203,-0.0202,-0.0186,-0.0204,-0.0205,-0.0252,-0.0257,-0.026,-0.0285,-0.0288,-0.0294,-0.0295,-0.0296,-0.0297,0,0,0,0,0,0,0,-0.0128,-0.013,-0.0144,-0.0153,-0.0155,-0.0164,-0.0168,-0.0186,-0.0215,-0.0188,-0.0191,-0.0192,-0.0254,-0.0258,-0.0262,-0.0289,-0.0294,-0.0296,-0.0297,-0.0298,-0.0358,-0.0358,0,0,0,0,0,0,-0.0122,-0.0129,-0.0143,-0.0145,-0.0144,-0.0164,-0.0168,-0.0171,-0.0214,-0.022,-0.0191,-0.0194,-0.0253,-0.026,-0.0265,-0.0268,-0.0296,-0.0298,-0.03,-0.0358,-0.0358,-0.0358,0,0,0,0,0,0,-0.0121,-0.0123,-0.0142,-0.0137,-0.014,-0.0163,-0.0166,-0.0171,-0.0173,-0.0215,-0.0224,-0.0188,-0.0254,-0.0262,-0.0287,-0.0272,-0.0299,-0.0302,-0.0358,-0.0358,-0.0358,-0.027,0,0,0,0,0,0,-0.012,-0.0122,-0.012,-0.0136,-0.014,-0.0132,-0.0165,-0.0171,-0.0172,-0.0176,-0.0215,-0.0224,-0.0256,-0.0284,-0.0289,-0.0275,-0.0303,-0.0357,-0.0358,-0.0358,-0.0272,-0.0267,-0.0262,0,0,0,0,0,-0.012,-0.0113,-0.012,-0.0121,-0.0137,-0.0131,-0.0133,-0.0154,-0.0171,-0.0162,-0.0201,-0.0223,-0.0291,-0.0285,-0.0292,-0.0278,-0.0357,-0.0358,-0.0358,-0.0275,-0.0268,-0.0263,0,0,0,0,0,0,-0.0103,-0.0117,-0.0125,-0.0123,-0.0121,-0.0138,-0.0132,-0.0145,-0.0167,-0.0175,-0.022,-0.023,-0.0249,-0.0279,-0.0272,-0.0301,-0.033,-0.0331,-0.0264,-0.0258,-0.0253,-0.0222,-0.0305,0,0,0,0,0,-0.0097,-0.0096,-0.0105,-0.01,-0.0097,-0.0112,-0.0112,-0.0124,-0.0144,-0.0154,-0.0183,-0.0223,-0.0255,-0.0269,-0.0301,-0.0308,-0.0307,-0.0309,-0.0304,-0.0299,-0.0281,-0.0272,-0.0263,-0.036,-0.036,-0.036,0,0,-0.0092,-0.0095,-0.0098,-0.0096,-0.0098,-0.0084,-0.0114,-0.0108,-0.0103,-0.016,-0.0166,-0.0203,-0.0255,-0.027,-0.0281,-0.0292,-0.027,-0.03,-0.0295,-0.0279,-0.0271,-0.0261,-0.0253,-0.0361,-0.036,-0.036,0,0,-0.0068,-0.0079,-0.0065,-0.0059,-0.0054,-0.006,-0.0054,-0.0063,-0.0075,-0.0084,-0.013,-0.0151,-0.0198,-0.0224,-0.0247,-0.0233,-0.0245,-0.0255,-0.0197,-0.0188,-0.0179,-0.0171,-0.014,-0.013,-0.0249,-0.0249,-0.0249,0,-0.0058,-0.0041,-0.0058,-0.0035,-0.0023,-0.0045,-0.0017,-0.0031,-0.005,-0.0043,-0.0078,-0.0123,-0.0172,-0.0176,-0.0187,-0.0216,-0.021,-0.021,-0.0177,-0.0169,-0.0163,-0.0133,-0.0123,-0.0245,-0.0245,-0.0246,-0.0246,0,-0.0023,-0.0004,0.001,0.0028,0.0038,0.006,0.0046,0.0049,0.0031,0.0026,0.0021,-0.004,-0.0061,-0.0089,-0.014,-0.012,-0.0129,-0.0169,-0.018,-0.0146,-0.0119,-0.011,-0.0239,-0.024,-0.0242,-0.0243,0,0,0.0001,0.0028,0.0038,0.0069,0.0077,0.0098,0.0103,0.0124,0.0153,0.0118,0.0162,0.0082,0.0065,0.0036,-0.002,-0.0025,0.0015,-0.0077,-0.0078,-0.0024,0.0057,0.0025,0.0031,-0.0018,-0.0017,-0.0015,0.0065,0,0.0045,0.0102,0.01,0.0164,0.0199,0.0188,0.0206,0.0216,0.0213,0.0246,0.0199,0.0209,0.0106,0.0108,0.0083,0.0032,0.0039,-0.0001,-0.0004,-0.0003,-0.0017,0.0041,0.0038,0.0107,0.0073,0.0075,0.0076,0,0.0092,0.0128,0.019,0.0254,0.027,0.03,0.0352,0.0365,0.0389,0.0389,0.039,0.0359,0.0343,0.0254,0.0206,0.0184,0.013,0.009,0.0091,0.0039,-0.0019,0.006,0.0124,0.0012,0.0089,0.0088,0.0087,0,0.0137,0.0203,0.0258,0.0276,0.0328,0.0363,0.0396,0.0422,0.0456,0.0498,0.0545,0.0507,0.051,0.0436,0.032,0.0273,0.0287,0.0213,0.0148,0.0146,0.0133,0.0127,0.0107,0.0206,0.0206,0.0206,0.0205,0,0.0192,0.0246,0.0291,0.0326,0.0416,0.0428,0.0519,0.0541,0.0595,0.0675,0.063,0.0683,0.0551,0.0528,0.0408,0.0317,0.0356,0.0187,0.0169,0.0162,0.0158,0.0047,-0.0026,0.0209,0.0208,0.0207,0.0207,0,0.0231,0.0257,0.0334,0.0404,0.0439,0.0503,0.0603,0.0663,0.0707,0.0816,0.0843,0.0833,0.0803,0.0684,0.0585,0.0441,0.0294,0.0315,0.0325,0.0305,0.01,0.0031,0.0001,-0.0046,0.0261,0.026,0.026,0,0.0252,0.0287,0.0387,0.0443,0.0483,0.058,0.0647,0.0713,0.0784,0.0909,0.0973,0.0989,0.1021,0.0875,0.0641,0.0481,0.0335,0.0339,0.0227,0.0116,0.0027,-0.0027,-0.0069,0.0261,0.026,0.026,0.026,0,0.0284,0.0312,0.0373,0.0483,0.0573,0.0677,0.0787,0.0865,0.096,0.1079,0.1212,0.1267,0.1133,0.0959,0.071,0.0565,0.0253,0.0328,0.0215,0.0036,-0.0023,-0.0086,0.0192,0.0259,0.0259,0.0259,0.0259,0.0259,0.0301,0.0346,0.0415,0.0528,0.0626,0.0752,0.0853,0.0984,0.114,0.1331,0.1372,0.1503,0.1227,0.0887,0.0678,0.0261,0.0251,0.0109,0.0046,0.001,-0.0075,0.0206,0.0234,0.0234,0.0234,0.0234,0.0234,0,0.0319,0.0368,0.0456,0.0587,0.0688,0.0747,0.0922,0.1036,0.124,0.145,0.1598,0.1558,0.1235,0.0867,0.0301,0.0025,-0.0075,-0.0122,-0.0198,-0.0222,0.0041,-0.0002,-0.0027,-0.0027,-0.0026,-0.0026,-0.0026,-0.0026,0.033,0.0402,0.0447,0.0602,0.0699,0.0848,0.0954,0.1141,0.1319,0.157,0.1687,0.1751,0.146,0.0539,-0.0087,-0.0232,-0.0402,-0.0444,-0.0524,-0.036,-0.0343,-0.0328,-0.0385,-0.049,-0.049,-0.0758,-0.0761,-0.0763]}],[{"header":{"parameterUnit":"m.s-1","parameterCategory":2,"la1":30.2991,"la2":30.254,"lo1":-89.0895,"lo2":-89.0444,"dy":0.0017,"dx":0.0017,"nx":28,"ny":28,"refTime":"2024-04-22T09:00:00:Z","depth":"2","parameterNumber":2,"parameterNumberName":"U-component_of_CURRENTS"},"data":[0,0,0,0,0,0,0,0,0,0,0,0,0,0,0,0,0,0,0,0,0,0,0,0,0,0,0,0,0,0,0,0,0,0,0,0,0,0,0,0,0,0,0,0,0,0,0,0,0,0,0,0,0,0,0,0,0,0,0.23,0.2301,0,0.2342,0.2342,0.2342,0.2314,0.2313,0.2312,0.2311,0.2312,0.2313,0.2314,0,0,0,0,0,0,0,0,0,0,0,0,0,0.2253,0.2254,0.23,0.2301,0.2302,0.2341,0.2342,0.2342,0.2314,0.2313,0.2312,0.2311,0.2312,0.2313,0.2314,0,0,0,0,0,0,0,0,0,0,0,0,0,0.2278,0.2254,0.23,0.2296,0.2296,0.2341,0.2342,0.2342,0.2314,0.2313,0.2312,0.231,0.2312,0.2313,0.2314,0.2349,0,0,0.2318,0.2319,0,0,0,0,0,0,0,0,0.2277,0.2279,0.2295,0.2296,0.2297,0.2325,0.2326,0.2344,0.2315,0.2303,0.2311,0.231,0.2316,0.2317,0.2323,0.2349,0.2349,0.2318,0.2319,0.232,0.232,0,0,0,0,0,0,0,0.2275,0.2278,0.2312,0.2297,0.2297,0.2312,0.2312,0.2329,0.2313,0.2304,0.2303,0.2315,0.2316,0.2322,0.2323,0.2349,0.2318,0.2319,0.232,0.2321,0.2414,0.2416,0,0,0,0,0,0,0.2277,0.2276,0.2311,0.2314,0.2288,0.2313,0.2314,0.2314,0.2314,0.2314,0.2316,0.2313,0.232,0.2321,0.2322,0.2373,0.232,0.2321,0.2322,0.2413,0.2415,0.2417,0,0,0,0,0,0,0.2275,0.2279,0.2309,0.23,0.2305,0.2316,0.2315,0.2315,0.2331,0.2324,0.2322,0.2332,0.2319,0.2321,0.2349,0.2372,0.2321,0.2323,0.2411,0.2413,0.2416,0.2467,0,0,0,0,0,0,0.2273,0.2278,0.2285,0.23,0.2306,0.2344,0.2317,0.2317,0.2341,0.2338,0.2337,0.2335,0.2318,0.2347,0.235,0.2373,0.2324,0.2408,0.2412,0.2415,0.2463,0.2471,0.2478,0,0,0,0,0,0.2271,0.228,0.2285,0.229,0.2313,0.2345,0.235,0.235,0.2343,0.2357,0.2358,0.2336,0.2369,0.235,0.2353,0.2376,0.2407,0.2411,0.2415,0.246,0.247,0.2478,0,0,0,0,0,0,0.2259,0.2279,0.2284,0.2297,0.2327,0.2342,0.2358,0.2365,0.2379,0.2378,0.2362,0.2362,0.2387,0.2387,0.2366,0.2414,0.2384,0.2388,0.2417,0.2426,0.2433,0.2448,0.2325,0,0,0,0,0,0.2264,0.2276,0.2303,0.2317,0.2332,0.2352,0.2369,0.2377,0.2391,0.2395,0.2396,0.2401,0.2408,0.242,0.2422,0.2463,0.2474,0.2479,0.2487,0.2493,0.2509,0.2547,0.2559,0.2429,0.2429,0.2429,0,0,0.2264,0.2279,0.2285,0.2317,0.2336,0.2363,0.2357,0.2392,0.242,0.2395,0.2429,0.2424,0.2422,0.2451,0.2465,0.2455,0.2539,0.2498,0.2503,0.2515,0.2553,0.2565,0.2576,0.2432,0.2431,0.2431,0,0,0.2275,0.2285,0.2303,0.233,0.2373,0.2385,0.2401,0.2432,0.2451,0.2496,0.2473,0.2493,0.2515,0.2514,0.2517,0.2576,0.2568,0.2574,0.2633,0.2671,0.2681,0.2691,0.273,0.2743,0.2587,0.2587,0.2587,0,0.2279,0.2298,0.2317,0.2346,0.2373,0.2396,0.243,0.2457,0.2495,0.2521,0.2514,0.2546,0.2546,0.2574,0.2596,0.2592,0.2614,0.2595,0.268,0.269,0.2699,0.2736,0.2749,0.259,0.259,0.259,0.2589,0,0.2312,0.2326,0.2341,0.2379,0.2413,0.2446,0.2489,0.252,0.2548,0.2578,0.2623,0.2627,0.265,0.265,0.2648,0.2707,0.2701,0.2675,0.2655,0.2715,0.2751,0.2764,0.2595,0.2594,0.2593,0.2592,0,0,0.2315,0.2355,0.2361,0.2377,0.2435,0.2461,0.2515,0.2572,0.2618,0.2651,0.271,0.2728,0.274,0.2746,0.2737,0.2776,0.2865,0.2768,0.2769,0.2803,0.2959,0.2834,0.2836,0.2853,0.2855,0.2857,0.2961,0,0.2336,0.2382,0.2405,0.2445,0.2469,0.2507,0.256,0.2618,0.2673,0.2736,0.2755,0.2804,0.2774,0.2798,0.2832,0.2866,0.2901,0.284,0.29,0.2902,0.278,0.2847,0.2622,0.2684,0.2973,0.2975,0.2977,0,0.2357,0.2387,0.2438,0.2476,0.2495,0.2534,0.262,0.2667,0.2758,0.2806,0.2852,0.2881,0.295,0.291,0.2996,0.2962,0.2972,0.2983,0.2986,0.2861,0.2801,0.267,0.2696,0.2998,0.2997,0.2995,0.2994,0,0.2349,0.2393,0.2434,0.2454,0.2519,0.2561,0.26,0.2698,0.2763,0.2857,0.2922,0.2983,0.3027,0.3066,0.3092,0.3069,0.3173,0.3138,0.3024,0.3016,0.283,0.28,0.3183,0.3183,0.3183,0.3183,0.3182,0,0.2347,0.2372,0.2436,0.2461,0.2522,0.2571,0.2661,0.2707,0.2817,0.2885,0.2958,0.3014,0.3071,0.3128,0.3142,0.3128,0.3214,0.3053,0.3037,0.2841,0.2812,0.3082,0.3069,0.3186,0.3186,0.3185,0.3184,0,0.2335,0.2363,0.2413,0.2495,0.2518,0.2571,0.2683,0.2739,0.2849,0.294,0.2977,0.3079,0.3141,0.3179,0.3239,0.3174,0.3186,0.3141,0.2905,0.2857,0.2999,0.2988,0.3063,0.306,0.3057,0.3054,0.3052,0,0.2343,0.2372,0.2446,0.2474,0.2516,0.2596,0.264,0.2739,0.2797,0.2955,0.2981,0.3089,0.31,0.3152,0.3089,0.3081,0.3133,0.2823,0.2719,0.3012,0.299,0.2983,0.2976,0.2514,0.2507,0.2502,0.2498,0,0.238,0.2409,0.2447,0.25,0.2542,0.2584,0.2653,0.2689,0.2785,0.2865,0.2926,0.296,0.2991,0.2849,0.282,0.2781,0.2814,0.2713,0.3105,0.2556,0.2495,0.2472,0.2484,0.2452,0.2457,0.246,0.2462,0.2464,0.2417,0.2461,0.2501,0.2533,0.2576,0.2569,0.2537,0.2591,0.2633,0.2648,0.2739,0.2687,0.2669,0.2508,0.2422,0.2365,0.2553,0.2417,0.2433,0.2455,0.235,0.2284,0.2184,0.2187,0.2189,0.2192,0.2194,0,0.2454,0.2493,0.2532,0.2546,0.2528,0.256,0.2541,0.2452,0.2414,0.2424,0.2414,0.2167,0.2068,0.2091,0.1931,0.1892,0.1885,0.1809,0.1785,0.1832,0.1874,0.1739,0.1412,0.1409,0.1407,0.1404,0,0,0.248,0.2496,0.25,0.2473,0.2483,0.2383,0.2321,0.2194,0.2144,0.199,0.1922,0.1976,0.2038,0.1702,0.1641,0.1505,0.1661,0.1446,0.208,0.2102,0.2141,0.2236,0.2082,0,0,0,0,0]},{"header":{"parameterUnit":"m.s-1","parameterCategory":2,"la1":30.2991,"la2":30.254,"lo1":-89.0895,"lo2":-89.0444,"dy":0.0017,"dx":0.0017,"nx":28,"ny":28,"refTime":"2024-04-22T09:00:00:Z","depth":"2","parameterNumber":3,"parameterNumberName":"V-component_of_CURRENTS"},"data":[0,0,0,0,0,0,0,0,0,0,0,0,0,0,0,0,0,0,0,0,0,0,0,0,0,0,0,0,0,0,0,0,0,0,0,0,0,0,0,0,0,0,0,0,0,0,0,0,0,0,0,0,0,0,0,0,0,0,0.0275,0.0275,0,0.0286,0.0286,0.0286,0.0298,0.0298,0.0298,0.0299,0.0258,0.0257,0.0256,0,0,0,0,0,0,0,0,0,0,0,0,0,0.019,0.0192,0.0275,0.0275,0.0276,0.0286,0.0286,0.0286,0.0298,0.0298,0.0298,0.0299,0.0259,0.0257,0.0256,0,0,0,0,0,0,0,0,0,0,0,0,0,0.0215,0.0192,0.0275,0.0284,0.0285,0.0286,0.0286,0.0286,0.0298,0.0298,0.0298,0.0299,0.0259,0.0257,0.0255,0.0234,0,0,0.0249,0.0248,0,0,0,0,0,0,0,0,0.0214,0.0218,0.0282,0.0283,0.0284,0.0292,0.0241,0.0267,0.0297,0.0291,0.0299,0.0299,0.0266,0.0263,0.0263,0.0232,0.023,0.0249,0.0248,0.0247,0.0246,0,0,0,0,0,0,0,0.0212,0.0217,0.0278,0.0283,0.0284,0.0262,0.0266,0.0246,0.0273,0.0292,0.0293,0.0297,0.0266,0.0265,0.0262,0.0229,0.0249,0.0247,0.0246,0.0245,0.019,0.0189,0,0,0,0,0,0,0.0218,0.0216,0.0278,0.0278,0.0251,0.0263,0.0268,0.0288,0.0275,0.0274,0.0296,0.0297,0.0268,0.0264,0.026,0.0262,0.0247,0.0245,0.0244,0.019,0.019,0.0189,0,0,0,0,0,0,0.0216,0.0224,0.0277,0.0247,0.0253,0.0265,0.0286,0.0288,0.029,0.0279,0.0277,0.0297,0.0268,0.0263,0.0248,0.026,0.0244,0.0242,0.019,0.019,0.0189,0.0247,0,0,0,0,0,0,0.0214,0.0223,0.0232,0.0249,0.0255,0.0289,0.0286,0.0288,0.0292,0.0293,0.0279,0.0276,0.0268,0.0251,0.0246,0.0256,0.0241,0.019,0.019,0.019,0.0246,0.0249,0.0252,0,0,0,0,0,0.0211,0.0231,0.0233,0.0239,0.027,0.029,0.0291,0.0299,0.0291,0.0299,0.0285,0.0276,0.0245,0.025,0.0244,0.0254,0.0191,0.019,0.019,0.0244,0.0248,0.0252,0,0,0,0,0,0,0.02,0.0234,0.0237,0.0266,0.0279,0.0293,0.0301,0.0297,0.0292,0.029,0.0272,0.0268,0.0264,0.0241,0.0247,0.0233,0.0216,0.0214,0.0259,0.0263,0.0266,0.0289,0.0239,0,0,0,0,0,0.02,0.0224,0.0247,0.0269,0.0279,0.0285,0.029,0.0296,0.0296,0.0295,0.0283,0.0265,0.0255,0.0245,0.0234,0.022,0.0202,0.022,0.0223,0.0226,0.0238,0.0216,0.0219,0.0187,0.0187,0.0187,0,0,0.0199,0.0222,0.0233,0.0267,0.0278,0.0305,0.029,0.0307,0.0323,0.0289,0.0298,0.0277,0.0253,0.0251,0.0245,0.0234,0.0223,0.0225,0.0228,0.0239,0.0216,0.0219,0.0222,0.0187,0.0187,0.0187,0,0,0.0218,0.0234,0.0262,0.0282,0.0306,0.0314,0.0319,0.0332,0.0333,0.0333,0.0317,0.0301,0.0279,0.0272,0.0262,0.0267,0.0244,0.0258,0.0289,0.0267,0.027,0.0272,0.0252,0.0252,0.0255,0.0255,0.0255,0,0.0213,0.0262,0.027,0.0307,0.0329,0.0322,0.0358,0.0358,0.036,0.0364,0.0345,0.0323,0.0294,0.0299,0.03,0.0277,0.026,0.0282,0.0273,0.0275,0.0277,0.0255,0.0255,0.0257,0.0257,0.0257,0.0257,0,0.026,0.0297,0.0318,0.0367,0.0385,0.0416,0.0426,0.0434,0.0424,0.0421,0.042,0.038,0.0368,0.0351,0.0326,0.0324,0.0307,0.0286,0.0271,0.0284,0.0259,0.0258,0.0261,0.026,0.026,0.0259,0,0,0.0268,0.0337,0.0347,0.0388,0.0424,0.0453,0.0475,0.0502,0.0526,0.05,0.0525,0.0482,0.0454,0.044,0.0401,0.0374,0.0356,0.0335,0.0332,0.0327,0.0311,0.0279,0.0274,0.0335,0.0335,0.0335,0.0289,0,0.0307,0.0387,0.0409,0.0486,0.0533,0.0542,0.0569,0.0585,0.0582,0.0599,0.0553,0.0557,0.0489,0.0485,0.0444,0.0391,0.0355,0.0371,0.0288,0.0286,0.0267,0.0272,0.0287,0.0246,0.0287,0.0287,0.0287,0,0.0357,0.0408,0.0485,0.0567,0.0589,0.0626,0.0683,0.0708,0.0715,0.0712,0.0695,0.0659,0.0623,0.0559,0.0465,0.048,0.0397,0.0344,0.034,0.0293,0.0251,0.0238,0.0241,0.0284,0.0284,0.0284,0.0285,0,0.038,0.047,0.0534,0.0563,0.0641,0.0677,0.0717,0.0741,0.078,0.0788,0.0813,0.0751,0.0737,0.0633,0.0502,0.0486,0.0399,0.0363,0.0257,0.0253,0.0241,0.0237,0.029,0.029,0.029,0.029,0.029,0,0.0428,0.0487,0.0554,0.0599,0.0687,0.0721,0.0805,0.0831,0.0873,0.0938,0.0873,0.0901,0.0754,0.068,0.0544,0.0401,0.0425,0.027,0.0242,0.026,0.0258,0.027,0.0269,0.0288,0.0289,0.0289,0.0289,0,0.0454,0.0492,0.0583,0.0671,0.0705,0.0771,0.0881,0.0941,0.0968,0.1052,0.1063,0.1019,0.0924,0.0765,0.0603,0.0468,0.033,0.0266,0.0297,0.0272,0.0187,0.0189,0.0152,0.0151,0.015,0.0149,0.0148,0,0.0476,0.0522,0.0636,0.0695,0.0742,0.0841,0.0915,0.0982,0.106,0.113,0.1183,0.1114,0.1073,0.0823,0.0579,0.0347,0.0317,0.0205,0.0168,0.0198,0.0174,0.0178,0.0181,0.0174,0.0173,0.0173,0.0172,0,0.0529,0.0562,0.064,0.0752,0.0844,0.0953,0.107,0.1148,0.1238,0.1308,0.1374,0.1342,0.1099,0.0861,0.0534,0.0376,0.0243,0.0186,0.022,0.0203,0.0213,0.0192,0.0195,0.0168,0.0168,0.0169,0.0169,0.0169,0.0576,0.0627,0.072,0.0828,0.0923,0.1051,0.1155,0.1283,0.1416,0.1511,0.1487,0.1429,0.1166,0.0728,0.0468,0.0193,0.0204,0.0104,0.0108,0.0111,0.012,0.0127,0.0066,0.0066,0.0066,0.0066,0.0066,0,0.0648,0.0696,0.0791,0.0924,0.1023,0.1071,0.1245,0.1349,0.1511,0.1558,0.1584,0.1311,0.1051,0.075,0.0338,0.0097,0.0083,0.0022,0.0064,0.0071,0.0075,0.0083,0.0019,0.0018,0.0017,0.0017,0,0,0.069,0.0787,0.0821,0.098,0.1065,0.1207,0.1305,0.1452,0.1525,0.1567,0.1516,0.143,0.1098,0.0792,0.0476,0.0247,0.021,0.0197,0.026,0.0353,0.0361,0.0148,0.0169,0,0,0,0,0]}],[{"header":{"parameterUnit":"m.s-1","parameterCategory":2,"la1":30.2991,"la2":30.254,"lo1":-89.0895,"lo2":-89.0444,"dy":0.0017,"dx":0.0017,"nx":28,"ny":28,"refTime":"2024-04-22T09:00:00:Z","depth":"4","parameterNumber":2,"parameterNumberName":"U-component_of_CURRENTS"},"data":[0,0,0,0,0,0,0,0,0,0,0,0,0,0,0,0,0,0,0,0,0,0,0,0,0,0,0,0,0,0,0,0,0,0,0,0,0,0,0,0,0,0,0,0,0,0,0,0,0,0,0,0,0,0,0,0,0,0,0.1172,0.1172,0,0.1194,0.1194,0.1194,0.1217,0.1217,0.1217,0.1218,0.1286,0.1287,0.1289,0,0,0,0,0,0,0,0,0,0,0,0,0,0.1235,0.1233,0.1172,0.1172,0.1173,0.1194,0.1194,0.1194,0.1217,0.1217,0.1218,0.1218,0.1285,0.1287,0.1289,0,0,0,0,0,0,0,0,0,0,0,0,0,0.1227,0.1233,0.1172,0.1187,0.1188,0.1194,0.1194,0.1194,0.1217,0.1217,0.1218,0.1218,0.1285,0.1287,0.1289,0.1292,0,0,0.1296,0.1297,0,0,0,0,0,0,0,0,0.1227,0.1224,0.1184,0.1186,0.1187,0.1203,0.1241,0.123,0.1216,0.1205,0.1218,0.1218,0.1262,0.1266,0.1268,0.1296,0.1298,0.1296,0.1297,0.1298,0.1299,0,0,0,0,0,0,0,0.1228,0.1224,0.118,0.1185,0.1187,0.1222,0.122,0.1239,0.1231,0.1206,0.1208,0.1211,0.1264,0.1266,0.127,0.1299,0.1296,0.1298,0.1299,0.13,0.1401,0.1402,0,0,0,0,0,0,0.122,0.1224,0.118,0.1181,0.121,0.122,0.1218,0.1198,0.123,0.1235,0.1211,0.1212,0.1262,0.1267,0.1273,0.1341,0.1298,0.13,0.1302,0.14,0.1401,0.1403,0,0,0,0,0,0,0.1221,0.1215,0.1179,0.1205,0.1203,0.1217,0.1195,0.1198,0.1224,0.1233,0.1239,0.1237,0.1262,0.1269,0.1307,0.1342,0.1301,0.1303,0.1398,0.14,0.1402,0.1438,0,0,0,0,0,0,0.1222,0.1215,0.1219,0.1204,0.1201,0.1185,0.1194,0.1198,0.1224,0.1227,0.1257,0.1262,0.1263,0.1303,0.1309,0.1344,0.1305,0.1396,0.1399,0.1401,0.1435,0.1441,0.1446,0,0,0,0,0,0.1224,0.1213,0.1218,0.1215,0.1198,0.1185,0.1187,0.12,0.1225,0.1229,0.1259,0.1263,0.1324,0.1306,0.1312,0.1349,0.1395,0.1398,0.1401,0.1433,0.144,0.1446,0,0,0,0,0,0,0.1245,0.1214,0.1219,0.1201,0.1199,0.1189,0.1204,0.1216,0.1243,0.1263,0.1275,0.1281,0.1326,0.1333,0.1313,0.1386,0.1363,0.1367,0.1385,0.1391,0.1397,0.1404,0.1307,0,0,0,0,0,0.1251,0.1232,0.1216,0.1206,0.1208,0.1216,0.1224,0.1231,0.1244,0.1258,0.1285,0.1318,0.1339,0.1362,0.1379,0.142,0.1428,0.1449,0.1455,0.1459,0.147,0.1504,0.1514,0.1413,0.1413,0.1413,0,0,0.1256,0.124,0.1231,0.1211,0.1216,0.1217,0.1222,0.1235,0.1249,0.1262,0.1312,0.1337,0.1353,0.1393,0.1415,0.1408,0.1493,0.1463,0.1467,0.1475,0.1508,0.1518,0.1527,0.1415,0.1414,0.1414,0,0,0.1254,0.1246,0.1235,0.1231,0.1238,0.124,0.1249,0.1262,0.1283,0.1316,0.1339,0.1387,0.142,0.1446,0.1458,0.1508,0.1515,0.1522,0.1563,0.1596,0.1605,0.1612,0.1634,0.1643,0.1531,0.1531,0.1531,0,0.1278,0.1244,0.1235,0.1229,0.1235,0.1252,0.1256,0.1272,0.1302,0.1331,0.1335,0.1424,0.1441,0.1499,0.1519,0.1521,0.1538,0.1534,0.1603,0.1611,0.1618,0.1638,0.1648,0.1533,0.1533,0.1533,0.1532,0,0.1248,0.1248,0.1245,0.1238,0.1246,0.125,0.1265,0.1301,0.1338,0.1359,0.1432,0.1466,0.1524,0.154,0.1544,0.1618,0.1613,0.1599,0.1584,0.163,0.1649,0.1658,0.1536,0.1535,0.1535,0.1534,0,0,0.1242,0.1228,0.1233,0.1242,0.1253,0.1255,0.1292,0.1324,0.1368,0.1415,0.1479,0.1532,0.1581,0.1601,0.1634,0.1669,0.1734,0.1667,0.1668,0.1685,0.1809,0.1676,0.1674,0.1736,0.1738,0.174,0.18,0,0.1234,0.1221,0.122,0.1237,0.1239,0.1271,0.13,0.1341,0.1389,0.1458,0.1518,0.1591,0.1594,0.1654,0.1687,0.1726,0.1762,0.1719,0.1765,0.1767,0.164,0.1681,0.1746,0.1807,0.181,0.1811,0.1812,0,0.1204,0.1204,0.1208,0.1241,0.1248,0.1272,0.134,0.1369,0.1457,0.151,0.1598,0.1648,0.1741,0.173,0.1814,0.179,0.1811,0.1825,0.1827,0.1698,0.1652,0.1753,0.1829,0.1828,0.1827,0.1825,0.1824,0,0.1183,0.1201,0.1206,0.1211,0.1246,0.1284,0.1322,0.1396,0.144,0.1572,0.1635,0.1728,0.1809,0.1841,0.1876,0.1863,0.1942,0.192,0.1818,0.1809,0.1894,0.1885,0.1976,0.1976,0.1976,0.1976,0.1975,0,0.1148,0.117,0.1207,0.1207,0.1249,0.1285,0.1355,0.1413,0.1509,0.1569,0.1679,0.1751,0.1845,0.1894,0.1902,0.1881,0.1964,0.1833,0.1818,0.1907,0.1899,0.19,0.1891,0.1978,0.1977,0.1977,0.1977,0,0.1114,0.1135,0.1148,0.1199,0.1235,0.1264,0.1367,0.1408,0.1521,0.161,0.1666,0.1797,0.1866,0.1912,0.1976,0.1911,0.1907,0.1881,0.1978,0.1967,0.1748,0.174,0.1773,0.1769,0.1765,0.1762,0.176,0,0.1079,0.1078,0.1136,0.1162,0.1195,0.1265,0.1311,0.1414,0.1452,0.1616,0.1641,0.1772,0.1842,0.1823,0.1882,0.1878,0.1855,0.1838,0.1787,0.1746,0.1729,0.1727,0.1723,0.1754,0.1753,0.1752,0.1752,0,0.1007,0.1039,0.1064,0.1114,0.1165,0.1203,0.1276,0.1303,0.1414,0.1535,0.1595,0.1644,0.1716,0.1753,0.1764,0.1756,0.1835,0.1801,0.1808,0.176,0.1724,0.171,0.1711,0.1739,0.1741,0.1742,0.1743,0,0.0967,0.0971,0.1007,0.1052,0.11,0.1101,0.1166,0.1215,0.1266,0.143,0.1452,0.1587,0.1704,0.1691,0.1697,0.1679,0.1653,0.1587,0.1605,0.1619,0.1536,0.1466,0.1396,0,0,0,0,0,0.09,0.0903,0.0939,0.0957,0.0997,0.1029,0.111,0.1174,0.1293,0.1292,0.1362,0.1423,0.147,0.1539,0.1489,0.1618,0.1648,0.155,0.1579,0.1672,0.1686,0.16,0,0,0,0,0,0,0.0847,0.0881,0.0903,0.0856,0.0869,0.0891,0.0945,0.1042,0.1041,0.1184,0.1218,0.1324,0.1388,0.1481,0.146,0.1475,0.1459,0.1625,0.162,0.1664,0.1677,0.1688,0.1605,0,0,0,0,0]},{"header":{"parameterUnit":"m.s-1","parameterCategory":2,"la1":30.2991,"la2":30.254,"lo1":-89.0895,"lo2":-89.0444,"dy":0.0017,"dx":0.0017,"nx":28,"ny":28,"refTime":"2024-04-22T09:00:00:Z","depth":"4","parameterNumber":3,"parameterNumberName":"V-component_of_CURRENTS"},"data":[0,0,0,0,0,0,0,0,0,0,0,0,0,0,0,0,0,0,0,0,0,0,0,0,0,0,0,0,0,0,0,0,0,0,0,0,0,0,0,0,0,0,0,0,0,0,0,0,0,0,0,0,0,0,0,0,0,0,0.0325,0.0325,0,0.0354,0.0355,0.0355,0.0375,0.0375,0.0375,0.0376,0.0377,0.0377,0.0377,0,0,0,0,0,0,0,0,0,0,0,0,0,0.0233,0.0235,0.0325,0.0325,0.0326,0.0354,0.0355,0.0355,0.0375,0.0375,0.0375,0.0376,0.0377,0.0377,0.0377,0,0,0,0,0,0,0,0,0,0,0,0,0,0.0267,0.0235,0.0325,0.034,0.0342,0.0354,0.0355,0.0355,0.0375,0.0375,0.0376,0.0376,0.0377,0.0377,0.0377,0.0367,0,0,0.0376,0.0376,0,0,0,0,0,0,0,0,0.0265,0.0271,0.0337,0.0339,0.0341,0.0363,0.0323,0.0358,0.0375,0.0361,0.0376,0.0376,0.037,0.0371,0.0374,0.0367,0.0367,0.0376,0.0376,0.0376,0.0375,0,0,0,0,0,0,0,0.0263,0.0269,0.0335,0.0338,0.034,0.0328,0.0333,0.0329,0.0361,0.0362,0.0364,0.0369,0.0371,0.0374,0.0374,0.0367,0.0376,0.0376,0.0375,0.0375,0.0371,0.0371,0,0,0,0,0,0,0.0265,0.0267,0.0334,0.0336,0.0305,0.0329,0.0335,0.0354,0.0362,0.0364,0.0369,0.037,0.0374,0.0374,0.0374,0.0389,0.0376,0.0375,0.0375,0.0371,0.0371,0.0371,0,0,0,0,0,0,0.0263,0.0271,0.0333,0.0302,0.031,0.0331,0.0351,0.0355,0.0367,0.0368,0.0369,0.0379,0.0375,0.0374,0.0385,0.0388,0.0375,0.0375,0.0371,0.0371,0.0371,0.0402,0,0,0,0,0,0,0.026,0.0271,0.0282,0.0303,0.0312,0.0351,0.0351,0.0355,0.0369,0.0371,0.0376,0.0377,0.0375,0.0385,0.0384,0.0387,0.0375,0.0371,0.0371,0.0371,0.0401,0.0403,0.0405,0,0,0,0,0,0.0257,0.0275,0.0283,0.0291,0.0329,0.0352,0.0355,0.0369,0.0369,0.038,0.0385,0.0377,0.0385,0.0385,0.0384,0.0387,0.0371,0.0371,0.0371,0.04,0.0403,0.0405,0,0,0,0,0,0,0.0241,0.028,0.0289,0.0318,0.0337,0.0356,0.0367,0.0372,0.0384,0.0386,0.0383,0.0384,0.0392,0.0384,0.0385,0.0385,0.0374,0.0374,0.0396,0.0399,0.0401,0.04,0.0374,0,0,0,0,0,0.0243,0.0269,0.0297,0.032,0.0332,0.0348,0.0358,0.037,0.0383,0.0389,0.0392,0.0391,0.0389,0.0392,0.039,0.0393,0.0362,0.0391,0.0394,0.0395,0.0393,0.0349,0.0347,0.0372,0.0372,0.0372,0,0,0.0241,0.0267,0.0281,0.0318,0.0335,0.0357,0.0356,0.0379,0.0394,0.0385,0.0406,0.04,0.0392,0.0399,0.04,0.0395,0.0372,0.0396,0.0398,0.0394,0.0349,0.0346,0.0344,0.0372,0.0372,0.0372,0,0,0.0254,0.0277,0.0304,0.0323,0.0354,0.0366,0.0374,0.0398,0.0407,0.0424,0.0418,0.0415,0.042,0.0413,0.0409,0.0418,0.0384,0.0417,0.0428,0.0386,0.0383,0.0381,0.0337,0.033,0.0418,0.0418,0.0418,0,0.0249,0.0293,0.0312,0.0342,0.036,0.0372,0.0399,0.0408,0.043,0.0434,0.0436,0.0429,0.0424,0.042,0.0426,0.0423,0.0392,0.0422,0.0388,0.0385,0.0382,0.0338,0.033,0.042,0.042,0.0419,0.0419,0,0.0284,0.0316,0.0333,0.0378,0.0395,0.0422,0.044,0.0453,0.0461,0.0465,0.0466,0.0456,0.0451,0.0446,0.0442,0.0419,0.0403,0.0396,0.0382,0.0381,0.0335,0.0326,0.0422,0.0421,0.0421,0.0421,0,0,0.0285,0.0346,0.0354,0.038,0.0419,0.044,0.0461,0.0483,0.0493,0.0496,0.05,0.0491,0.0478,0.0472,0.0458,0.0423,0.0376,0.0404,0.0401,0.0361,0.0277,0.0269,0.0258,0.0362,0.0361,0.036,0.0254,0,0.0309,0.0369,0.0392,0.0441,0.0472,0.0487,0.0506,0.052,0.0526,0.053,0.0505,0.0508,0.049,0.0491,0.045,0.0397,0.0355,0.0405,0.0284,0.028,0.0273,0.0249,0.0356,0.0247,0.0245,0.0243,0.0242,0,0.0339,0.0378,0.0433,0.048,0.0494,0.0521,0.0551,0.0572,0.057,0.0574,0.0559,0.0538,0.0499,0.0484,0.0375,0.0408,0.0345,0.0297,0.0291,0.0266,0.0256,0.0248,0.0226,0.0227,0.0228,0.0229,0.023,0,0.0342,0.0404,0.045,0.047,0.0522,0.0546,0.0572,0.0585,0.0611,0.0605,0.0613,0.0553,0.0535,0.0442,0.0346,0.0358,0.0213,0.0217,0.0145,0.0143,0.017,0.0174,0.013,0.013,0.013,0.0131,0.0131,0,0.0364,0.0402,0.0458,0.049,0.0539,0.0565,0.0617,0.0628,0.065,0.0679,0.064,0.0635,0.0523,0.0434,0.0338,0.0209,0.0202,0.0135,0.0112,0.0186,0.0193,0.0163,0.0169,0.0127,0.0128,0.0128,0.0129,0,0.037,0.0407,0.0464,0.0525,0.055,0.0587,0.0669,0.0705,0.0714,0.0748,0.0751,0.0688,0.0574,0.0445,0.0287,0.0209,0.0082,0.0039,0.0118,0.0102,0.0042,0.005,-0.0053,-0.0055,-0.0056,-0.0057,-0.0057,0,0.0385,0.0418,0.0493,0.0537,0.0575,0.0643,0.0699,0.074,0.0781,0.0781,0.0792,0.0697,0.064,0.04,0.0265,0.0061,0.0043,-0.0029,0.0013,0.0033,0.0021,0.0031,0.004,-0.0059,-0.0059,-0.006,-0.006,0,0.0414,0.0438,0.0487,0.0573,0.0642,0.072,0.0796,0.0827,0.0868,0.087,0.0824,0.0712,0.0577,0.0401,0.0237,0.0099,0.0013,-0.004,-0.0038,0.0001,0.0025,0.0016,0.0027,-0.0064,-0.0063,-0.0063,-0.0063,0,0.0442,0.0469,0.0534,0.0611,0.0693,0.077,0.0814,0.0859,0.0892,0.0881,0.0859,0.0721,0.0638,0.042,0.027,0.0126,0.0102,0.0064,0.006,0.0063,0.0133,0.0184,0.0113,0,0,0,0,0,0.0467,0.0506,0.0574,0.0656,0.0736,0.0785,0.0867,0.0904,0.0929,0.0903,0.0884,0.076,0.0543,0.0445,0.03,0.0254,0.0077,0.0079,0.0032,-0.0084,-0.008,-0.0017,0,0,0,0,0,0,0.0488,0.0549,0.0572,0.0677,0.074,0.0834,0.0888,0.0912,0.0895,0.0889,0.0771,0.0719,0.0502,0.0619,0.0292,0.0249,0.0199,-0.0022,-0.0026,-0.0087,-0.0083,-0.0079,-0.0013,0,0,0,0,0]}]]